sat.trackr.live / text

‹ back to catalog

STARLINK-4737

NORAD 53834 · 2022-114S

PAYLOAD ACTIVE UNKNOWN

§ Identity

Operator
Country
US
Launch date
2022-09-19
Launch site
AFETR
Launch vehicle
Mass (kg)
RCS (m²)

Purposes: comms

External: N2YO · Heavens-Above · Gunter

§ Orbital elements

Epoch: 2026-09-20T22:51:40.517856Z

Period
93.79 min
Inclination
53.1601°
Eccentricity
0.0001051
Mean motion
15.35403382 rev/d
Perigee alt
459.0 km
Apogee alt
460.4 km
Semi-major
6,837.9 km
B*
4.4700e-5
RAAN
137.4704°
Arg perigee
86.2997°
Mean anomaly
273.8126°
Rev number
22,244

§ Raw data

STARLINK-47371 53834U 22114S   26263.95255229  .00001179  00000+0  44700-4 0  99972 53834  53.1601 137.4704 0001051  86.2997 273.8126 15.35403382222442

JSON: /api/v1/satellites/53834 · /tle

For live sub-satellite position, see the globe view (requires WebGL).

§ Visibility from observer

Set your observer location to see the next 7 days of passes ≥ 10°. The values pass through the URL so the page stays shareable.

No JS? Fill the form by hand. The geolocation button needs JavaScript.